Starlink 6196

operational
NORAD ID: 56487 Int'l Des: 2023-064 Owner: SPXS Country: US Constellation: starlink
LEOCIRCULAR

Starlink 6196について

説明を読み込み中...

リアルタイム位置

3D地球を読み込み中...

次回通過

高度履歴

Altitude vs Time

uPlot chart will show altitude changes over time

軌道要素

1 56487U 23064AR 25306.49436635 .00000157 00000-0 20941-4 0 9994
2 56487 69.9999 65.0140 0002960 271.0392 89.0428 14.98328898137181
Epoch: Nov 2, 2025 • Age: 7 hours

現在のステータス

高度 584.5 km
速度 7.57 km/s
衛星直下点 64.14°N, 151.37°E
打ち上げ日 May 10, 2023
運用期間 2.4 years
タイプ internet

技術仕様

分類 Payload
質量 305.00 kg
乾燥質量 290.00 kg
総質量 305.00 kg
長さ 0.20 m
直径 2.80 m
スパン 9.00 m
形状 Box + pan
製造者 SPXS
バスタイプ Starlink
フェーズステータス In Orbit
所有者/国 SPXS/US

大規模コンステレーション

Loading constellations...